Regional Weather Roundup
Issued by NWS New Orleans/Baton Rouge, LA

Home | Current Version | Previous Version | Graphics & Text | Print | Product List | Glossary On
Versions: 1 2 3 4 5 6 7 8 9 10 11 12 13 14 15 16 17 18 19 20 21 22 23 24 25 26 27 28 29 30 31 32 33 34 35 36 37 38 39 40 41 42 43 44 45 46 47 48 49 50
484
ASUS44 KLIX 292207
RWRLIX
NEW ORLEANS REGIONAL WEATHER ROUNDUP
NATIONAL WEATHER SERVICE NEW ORLEANS LA
500 PM CDT SUN MAR 29 2015

NOTE: "FAIR" INDICATES FEW OR NO CLOUDS BELOW 12,000 FEET WITH NO
      SIGNIFICANT WEATHER AND/OR OBSTRUCTIONS TO VISIBILITY.
      SKY/WX - SKY CONDITION AND SIGNIFICANT WEATHER.
      TMP - AIR TEMPERATURE.     DP    - DEWPOINT TEMPERATURE.
      RH  - RELATIVE HUMIDITY.   PRES  - PRESSURE.
      HI  - HEAT INDEX.          WCI   - WIND CHILL INDEX.

*  THESE STATIONS ARE NOT NWS OR FAA STATIONS AND ARE NOT UNDER
   NWS QUALITY CONTROL.

LAZ038-040-048-061>063-065>067-069-292300-
SOUTHEAST LOUISIANA

CITY           SKY/WX    TMP DP  RH WIND       PRES   REMARKS
N.O. AUDUBON   NOT AVBL
N.O. INTL ARPT MOSUNNY   74  60  61 SE17G26   30.19F
N.O. LAKEFRONT PTSUNNY   76  59  55 S15       30.20F
SLIDELL        PTSUNNY   73  61  65 SE13      30.20F
BATON ROUGE    PTSUNNY   78  55  44 S18G25    30.16F
BOOTHVILLE     SUNNY     73  62  68 S14G23    30.23F
BELLE CHASSE   MOSUNNY   74  59  59 S14       30.20F
BOGALUSA*        N/A     76  57  52 S9        30.20F
GALLIANO*      PTCLDY    78  61  55 MISG      30.21F
NEW ROADS*       N/A     78  57  48 S14G21    30.15F
GONZALES*      MOCLDY    79  57  48 S13G20    30.17F
HAMMOND*       PTSUNNY   75  59  57 SE12      30.20S
HOUMA*         MOSUNNY   75  63  64 S12       30.20F
PORT FOURCHON* CLEAR     73  64  73 SE10      30.25S

$$

MSZ070-080>082-292300-
SOUTHERN MISSISSIPPI

CITY           SKY/WX    TMP DP  RH WIND       PRES   REMARKS
MCCOMB         MOSUNNY   76  57  51 S12G20    30.16F
GULFPORT       CLOUDY    68  57  68 SE13      30.23F
BILOXI         CLOUDY    67  59  73 SE9       30.23F
PASCAGOULA     PTSUNNY   67  57  70 SE14G22   30.25F
STENNIS ARPT*  PTSUNNY   70  55  60 SE12      30.22F

$$

COASTAL OBSERVATIONS
LAKE AND NEARSHORE STATIONS

STATION/POSITION TIME  TEMP    WIND        PRES    WAVE
                       AIR SEA DIR/SP/G            HT/PER
                 (UTC) (F)     (DEG/KT/KT) (MB)    (FT/S)
PASCAGOULA       2100   67     130/  7/ 15 1024.3
WAVELAND YACHT   2100   67 64  150/ 12/ 14 1023.7
GRAND ISLE       2100   71 68  150/ 10/ 14 1023.1
SOUTHWEST PASS   2100   71 54  140/  9/ 14 1024.0
NEW CANAL        2100   76     180/  5/  9 1023.0
SHELL BEACH      2100   71 69  150/ 17/ 21 1023.2

OFFSHORE STATIONS

STATION/POSITION TIME  TEMP    WIND        PRES    WAVE
                       AIR SEA DIR/SP/G            HT/PER
                 (UTC) (F)     (DEG/KT/KT) (MB)    (FT/S)
64 S DAUPHIN ISL 2150   69 71  150/ 14/ 17 1024.6    3/ 5

$$




USA.gov is the U.S. government's official web portal to all federal, state and local government web resources and services.